{"data":{"norad_id":62212,"intl_designator":"2024-229W","name":"STARLINK-32668","alt_names":[],"object_type":"PAYLOAD","status":"ACTIVE","operator":null,"country":"US","launch_date":"2024-12-04","launch_site_code":"AFETR","launch_vehicle":null,"mission":null,"orbit_class":"UNKNOWN","rcs_meters":null,"size_class":null,"mass_kg":null,"dimensions":null,"purposes":["comms"],"wikipedia_slug":null,"has_3d_model":false,"image_url":null,"decayed_at":null,"tle_current":{"epoch":"2026-05-25T03:47:30.420672Z","epoch_age_seconds":51659,"freshness":"FRESH","line1":"1 62212U 24229W   26145.15799098  .00012884  00000+0  47666-3 0  9992","line2":"2 62212  42.9968 195.6273 0001052 292.6256  67.4484 15.27596860 82299","mean_motion":15.2759686,"eccentricity":0.0001052,"inclination_deg":42.9968,"raan_deg":195.6273,"arg_perigee_deg":292.6256,"mean_anomaly_deg":67.4484,"bstar":0.00047666,"rev_number":8229,"period_min":94.265708296887,"perigee_km":482.27682013229,"apogee_km":483.72040306497,"semimajor_km":6861.1356115986,"source":"CELESTRAK","updated_at":"2026-05-25T13:38:19.611931Z"}}}